GW4193 Weather Reports


time (UTC)temp
C
wind
direction
speed
KPH
gust
KPH
rain 1hr
cm
rain 24hr
cm
rain mn
cm
humidity
%
barometer
mb
20260504190014 19 129 0.0 4.8 0.00 0.00 0.00 63 1011.8
20260504184518 18 227 0.0 6.4 0.00 0.00 0.00 62 1012.1
20260504183024 17 244 0.0 9.7 0.00 0.00 0.00 65 1012.4
20260504181508 17 259 4.8 11.3 0.00 0.00 0.00 64 1012.4
20260504180015 17 245 4.8 20.9 0.00 0.00 0.00 61 1012.3
20260504174516 17 221 4.8 20.9 0.00 0.00 0.00 60 1012.1
20260504173021 18 210 9.7 19.3 0.00 0.00 0.00 58 1012.4
20260504171527 18 207 4.8 17.7 0.00 0.00 0.00 58 1012.1
20260504081506 10 205 4.8 9.7 0.00 0.00 0.00 56 1014.2
20260504050023 7 236 0.0 3.2 0.00 0.00 0.00 76 1015.9
20260504044525 8 236 0.0 0.0 0.00 0.00 0.00 73 1016.1
20260504043010 8 236 0.0 3.2 0.00 0.00 0.00 69 1016.1
20260504041515 8 236 0.0 3.2 0.00 0.00 0.00 64 1016.2
20260504040019 9 236 0.0 3.2 0.00 0.00 0.00 63 1016.2
20260504034537 9 235 0.0 0.0 0.00 0.00 0.00 62 1016.0
20260504033030 9 236 0.0 0.0 0.00 0.00 0.00 61 1015.8
20260504031516 10 235 0.0 3.2 0.00 0.00 0.00 63 1015.8
20260504030025 9 212 0.0 3.2 0.00 0.00 0.00 56 1015.9
20260504024523 10 229 0.0 3.2 0.00 0.00 0.00 61 1015.7
20260504023024 10 229 0.0 0.0 0.00 0.00 0.00 55 1015.8
20260504021528 10 229 0.0 1.6 0.00 0.00 0.00 52 1015.5
20260504020016 10 229 0.0 0.0 0.00 0.00 0.00 49 1015.5
20260504014505 10 229 0.0 3.2 0.00 0.00 0.00 52 1015.1
20260504013005 10 229 0.0 3.2 0.00 0.00 0.00 52 1015.2
20260504011504 11 229 0.0 3.2 0.00 0.00 0.00 50 1014.9
20260504010004 11 229 0.0 0.0 0.00 0.00 0.00 45 1015.4
20260504004504 12 229 0.0 0.0 0.00 0.00 0.00 43 1015.2
20260504003004 13 229 0.0 0.0 0.00 0.00 0.00 37 1015.5
20260504001504 13 229 0.0 4.8 0.00 0.00 0.00 35 1015.4
20260504000005 14 199 1.6 4.8 0.00 0.00 0.00 34 1015.5
20260503234508 15 250 1.6 4.8 0.00 0.00 0.00 32 1015.4
20260503233005 15 250 1.6 9.7 0.00 0.00 0.00 31 1015.5
20260503231504 16 210 0.0 11.3 0.00 0.00 0.00 30 1015.7
20260503230006 16 262 4.8 14.5 0.00 0.00 0.00 29 1015.7
20260503224503 16 231 3.2 11.3 0.00 0.00 0.00 29 1015.9
20260503223005 16 232 0.0 12.9 0.00 0.00 0.00 30 1016.1
20260503221525 16 226 6.4 12.9 0.00 0.00 0.00 30 1016.1
20260503220034 16 240 1.6 9.7 0.00 0.00 0.00 29 1016.2
20260503214527 16 278 4.8 14.5 0.00 0.00 0.00 30 1016.3
20260503213014 16 225 8.0 19.3 0.00 0.00 0.00 29 1016.6
20260503211523 16 253 8.0 20.9 0.00 0.00 0.00 30 1016.5
20260503210024 16 87 6.4 14.5 0.00 0.00 0.00 1016.4
20260503204536 16 166 3.2 11.3 0.00 0.00 0.00 30 1016.6
20260503203026 16 207 3.2 6.4 0.00 0.00 0.00 1016.8
20260503201523 15 223 3.2 9.7 0.00 0.00 0.00 31 1017.1
20260503200023 15 162 1.6 6.4 0.00 0.00 0.00 32 1017.2
20260503194527 15 225 4.8 17.7 0.00 0.00 0.00 31 1017.5
20260503193029 15 238 4.8 11.3 0.00 0.00 0.00 32 1017.8
20260503191525 16 130 1.6 11.3 0.00 0.00 0.00 30 1018.1